Tracking 29892 objects as of 21-Nov-2024
HD Live streaming from Space Station
objects crossing your sky now

BREEZE-M DEB

Track BREEZE-M DEB now!
10-day predictions


NORAD ID: 32030
Int'l Code: 2006-006H
Perigee: 399.9 km
Apogee: 12,749.9 km
Inclination: 51.7 °
Period: 244.3 minutes
Semi major axis: 12945 km
RCS: 0.5822 m2 (medium)
Launch date: February 28, 2006
Source: Commonwealth of Independent States (former USSR) (CIS)
Launch site: TYURATAM MISSILE AND SPACE COMPLEX (TTMTR)

Note: This is SATELLITE DEBRIS
Your satellite tracking list
Your tracking list is empty




NASA's NSSDC Master Catalog

Two Line Element Set (TLE):
1 32030U 06006H   24325.53299394  .00008332  00000-0  41128-2 0  9994
2 32030  51.7157 133.2792 4769857  28.4974 350.8972  5.89391336356907
Source of the keplerian elements: AFSPC